Location: Cactus School
(34.5700°N, 118.0931°W)
Time: 11:37:08
(UTC-08:00)

Vanguard 2 Rocket - Visible Passes

Search period start: 19 November 2017 00:00
Search period end: 29 November 2017 00:00
Orbit: 556 x 3326 km, 32.9° (Epoch: 19 November)

Date Brightness Start Highest point End Pass type
(mag) Time Alt. Az. Time Alt. Az. Time Alt. Az.
19 Nov 9.1 02:20:53 45° ESE 02:20:53 45° ESE 02:26:45 10° E visible
19 Nov 7.9 04:26:42 37° W 04:32:11 82° S 04:39:24 10° E visible
20 Nov 10.0 01:24:49 21° E 01:24:49 21° E 01:27:23 10° E visible
20 Nov 8.2 03:30:38 72° SW 03:31:58 80° S 03:40:33 10° E visible
20 Nov 7.7 05:36:27 12° W 05:46:40 72° SSW 05:52:45 10° ESE visible
21 Nov 8.8 02:34:32 56° ESE 02:34:32 56° ESE 02:41:30 10° E visible
21 Nov 7.9 04:40:20 32° W 04:46:52 81° S 04:54:06 10° E visible
22 Nov 9.8 01:38:24 28° E 01:38:24 28° E 01:42:11 10° E visible
22 Nov 8.2 03:44:13 64° WSW 03:46:40 83° S 03:55:16 10° E visible
22 Nov 7.9 05:50:19 10° W 06:01:10 60° SSW 06:07:15 10° ESE visible
22 Nov 11.0 21:55:56 10° SSW 21:56:16 11° SSW 21:56:16 11° SSW visible
23 Nov 10.5 00:42:16 11° E 00:42:16 11° E 00:42:31 10° E visible
23 Nov 8.6 02:48:05 68° ESE 02:48:05 68° ESE 02:56:14 10° E visible
23 Nov 8.0 04:53:53 27° W 05:01:30 74° SSW 05:08:44 10° ESE visible
23 Nov 10.8 20:57:24 10° S 21:00:01 14° S 21:00:01 14° S visible
24 Nov 9.5 01:51:55 36° E 01:51:55 36° E 01:56:54 10° E visible
24 Nov 8.3 03:57:44 55° W 04:01:20 81° S 04:09:58 10° ESE visible
24 Nov 8.3 06:05:04 10° W 06:15:26 45° SSW 06:21:30 10° SE visible
24 Nov 10.8 20:01:09 10° SSE 20:03:49 12° SSE 20:03:49 12° SSE visible
24 Nov 10.9 22:08:06 10° SSW 22:09:37 13° SSW 22:09:37 13° SSW visible
25 Nov 10.4 00:55:46 16° E 00:55:46 16° E 00:57:18 10° E visible
25 Nov 8.5 03:01:35 80° SE 03:01:35 80° SE 03:10:56 10° E visible
25 Nov 8.2 05:07:23 22° W 05:15:57 62° SSW 05:23:13 10° SE visible
25 Nov 10.6 21:08:39 10° SSW 21:13:28 19° S 21:13:28 19° S visible
25 Nov10.923:59:37ENE23:59:37ENE23:19:16SWvisible
26 Nov 9.3 02:05:25 44° E 02:05:25 44° E 02:11:37 10° E visible
26 Nov 8.3 04:11:14 47° W 04:15:56 74° SSW 04:24:35 10° ESE visible
26 Nov 10.5 20:10:23 10° S 20:17:21 20° SSE 20:17:21 20° SSE visible
26 Nov 10.8 22:21:05 10° SW 22:23:09 15° SW 22:23:09 15° SW visible
27 Nov 10.2 01:09:16 21° E 01:09:16 21° E 01:12:00 10° E visible
27 Nov 8.5 03:15:05 81° SSW 03:15:23 82° S 03:25:37 10° ESE visible
27 Nov 8.5 05:20:53 18° W 05:30:10 48° SSW 05:37:25 10° SE visible
27 Nov 10.6 19:14:20 10° SSE 19:21:16 15° SE 19:21:16 15° SE visible
27 Nov 10.5 21:21:03 10° SSW 21:27:04 25° SSW 21:27:04 25° SSW visible
28 Nov10.800:13:07E00:13:07E23:32:53WSWvisible
28 Nov 9.2 02:18:56 53° E 02:18:56 53° E 02:26:20 10° E visible
28 Nov 8.5 04:24:44 39° W 04:30:22 63° SSW 04:39:01 10° SE visible
28 Nov 10.2 20:21:56 10° SSW 20:31:01 28° SSE 20:31:01 28° SSE visible
28 Nov 10.8 22:34:39 10° SW 22:36:50 16° SW 22:36:50 16° SW visible
